Time,TemperatureF,DewpointF,PressureIn,WindDirection,WindDirectionDegrees,WindSpeedMPH,WindSpeedGustMPH,Humidity,HourlyPrecipIn,Conditions,Clouds,dailyrainin,SolarRadiationWatts/m^2,SoftwareType,DateUTC
2013-02-26 00:10:00,42.3,36.6,30.33,North,1,0.0,0.0,80,0.00,,,0.00,0,Wunderground v.1.15,2013-02-26 08:10:00,
2013-02-26 00:20:00,42.2,36.5,30.34,North,1,0.0,0.0,80,0.00,,,0.00,0,Wunderground v.1.15,2013-02-26 08:20:00,
2013-02-26 00:25:00,42.1,36.4,30.34,North,1,0.0,0.0,80,0.00,,,0.00,0,Wunderground v.1.15,2013-02-26 08:25:00,
2013-02-26 00:40:00,41.9,36.2,30.34,North,1,0.0,0.0,80,0.00,,,0.00,0,Wunderground v.1.15,2013-02-26 08:40:00,
2013-02-26 00:50:00,41.7,36.0,30.35,North,1,0.0,0.0,80,0.00,,,0.00,0,Wunderground v.1.15,2013-02-26 08:50:00,
2013-02-26 01:00:00,41.7,36.0,30.35,North,1,0.0,0.0,80,0.00,,,0.00,0,Wunderground v.1.15,2013-02-26 09:00:00,
2013-02-26 01:10:00,41.7,36.6,30.35,North,1,0.0,0.0,82,0.00,,,0.00,0,Wunderground v.1.15,2013-02-26 09:10:00,
2013-02-26 01:20:00,41.8,37.0,30.35,North,1,0.0,0.0,83,0.00,,,0.00,0,Wunderground v.1.15,2013-02-26 09:20:00,
2013-02-26 01:30:00,41.8,37.0,30.36,North,1,0.0,0.0,83,0.00,,,0.00,0,Wunderground v.1.15,2013-02-26 09:30:00,
2013-02-26 01:40:00,41.7,36.9,30.36,North,1,0.0,0.0,83,0.00,,,0.00,0,Wunderground v.1.15,2013-02-26 09:40:00,
2013-02-26 01:50:00,41.7,36.9,30.36,North,2,0.0,0.0,83,0.00,,,0.00,0,Wunderground v.1.15,2013-02-26 09:50:00,
2013-02-26 02:00:00,41.6,37.1,30.36,North,2,0.0,0.0,84,0.00,,,0.00,0,Wunderground v.1.15,2013-02-26 10:00:00,
2013-02-26 02:10:00,41.5,36.7,30.36,North,2,0.0,0.0,83,0.00,,,0.00,0,Wunderground v.1.15,2013-02-26 10:10:00,
2013-02-26 02:20:00,41.4,36.9,30.36,North,2,0.0,0.0,84,0.00,,,0.00,0,Wunderground v.1.15,2013-02-26 10:20:00,
2013-02-26 02:30:00,41.3,36.8,30.36,North,2,0.0,0.0,84,0.00,,,0.00,0,Wunderground v.1.15,2013-02-26 10:30:00,
2013-02-26 02:40:00,41.3,36.8,30.36,North,2,0.0,0.0,84,0.00,,,0.00,0,Wunderground v.1.15,2013-02-26 10:40:00,
2013-02-26 02:50:00,41.3,36.8,30.36,North,2,0.0,0.0,84,0.00,,,0.00,0,Wunderground v.1.15,2013-02-26 10:50:00,
2013-02-26 03:00:00,41.3,37.1,30.35,North,2,0.0,0.0,85,0.00,,,0.00,0,Wunderground v.1.15,2013-02-26 11:00:00,
2013-02-26 03:10:00,41.3,36.8,30.36,North,2,0.0,0.0,84,0.00,,,0.00,0,Wunderground v.1.15,2013-02-26 11:10:00,
2013-02-26 03:20:00,41.3,37.1,30.36,North,2,0.0,0.0,85,0.00,,,0.00,0,Wunderground v.1.15,2013-02-26 11:20:00,
2013-02-26 03:25:00,41.2,36.7,30.36,North,2,0.0,0.0,84,0.00,,,0.00,0,Wunderground v.1.15,2013-02-26 11:25:00,
2013-02-26 03:40:00,41.2,36.7,30.36,North,2,0.0,0.0,84,0.00,,,0.00,0,Wunderground v.1.15,2013-02-26 11:40:00,
2013-02-26 03:45:00,41.1,36.6,30.36,North,2,0.0,0.0,84,0.00,,,0.00,0,Wunderground v.1.15,2013-02-26 11:45:00,
2013-02-26 03:55:00,41.1,36.6,30.36,North,2,0.0,0.0,84,0.00,,,0.00,0,Wunderground v.1.15,2013-02-26 11:55:00,
2013-02-26 04:10:00,40.9,36.4,30.37,North,2,0.0,0.0,84,0.00,,,0.00,0,Wunderground v.1.15,2013-02-26 12:10:00,
2013-02-26 04:20:00,40.9,36.4,30.37,North,2,0.0,0.0,84,0.00,,,0.00,0,Wunderground v.1.15,2013-02-26 12:20:00,
2013-02-26 04:25:00,40.9,36.4,30.37,North,2,0.0,0.0,84,0.00,,,0.00,0,Wunderground v.1.15,2013-02-26 12:25:00,
2013-02-26 04:40:00,40.9,36.7,30.37,North,2,0.0,0.0,85,0.00,,,0.00,0,Wunderground v.1.15,2013-02-26 12:40:00,
2013-02-26 04:50:00,40.9,36.7,30.38,North,2,0.0,0.0,85,0.00,,,0.00,0,Wunderground v.1.15,2013-02-26 12:50:00,
2013-02-26 05:00:00,40.9,36.7,30.38,North,2,0.0,0.0,85,0.00,,,0.00,0,Wunderground v.1.15,2013-02-26 13:00:00,
2013-02-26 05:10:00,40.8,36.6,30.37,North,2,0.0,0.0,85,0.00,,,0.00,0,Wunderground v.1.15,2013-02-26 13:10:00,
2013-02-26 05:20:00,40.8,36.6,30.38,North,2,0.0,0.0,85,0.00,,,0.00,0,Wunderground v.1.15,2013-02-26 13:20:00,
2013-02-26 05:30:00,40.7,36.5,30.38,North,2,0.0,0.0,85,0.00,,,0.00,0,Wunderground v.1.15,2013-02-26 13:30:00,
2013-02-26 05:40:00,40.7,36.5,30.38,North,2,0.0,0.0,85,0.00,,,0.00,0,Wunderground v.1.15,2013-02-26 13:40:00,
2013-02-26 05:50:00,40.6,36.7,30.38,North,2,0.0,0.0,86,0.00,,,0.00,0,Wunderground v.1.15,2013-02-26 13:50:00,
2013-02-26 06:00:00,40.6,36.7,30.38,North,2,0.0,0.0,86,0.00,,,0.00,0,Wunderground v.1.15,2013-02-26 14:00:00,
2013-02-26 06:10:00,40.7,36.8,30.38,North,2,0.0,0.0,86,0.00,,,0.00,0,Wunderground v.1.15,2013-02-26 14:10:00,
2013-02-26 06:20:00,40.8,36.9,30.38,North,2,0.0,0.0,86,0.00,,,0.00,0,Wunderground v.1.15,2013-02-26 14:20:00,
2013-02-26 06:25:00,40.8,36.9,30.38,North,2,0.0,0.0,86,0.00,,,0.00,0,Wunderground v.1.15,2013-02-26 14:25:00,
2013-02-26 06:40:00,41.0,37.4,30.38,North,2,0.0,0.0,87,0.00,,,0.00,0,Wunderground v.1.15,2013-02-26 14:40:00,
2013-02-26 06:50:00,41.3,37.7,30.38,North,4,0.0,0.0,87,0.00,,,0.00,0,Wunderground v.1.15,2013-02-26 14:50:00,
2013-02-26 07:00:00,41.4,37.8,30.38,North,8,0.0,0.0,87,0.00,,,0.00,0,Wunderground v.1.15,2013-02-26 15:00:00,
2013-02-26 07:10:00,41.6,38.0,30.38,ESE,115,0.0,0.0,87,0.00,,,0.00,0,Wunderground v.1.15,2013-02-26 15:10:00,
2013-02-26 07:20:00,41.7,37.8,30.39,South,174,0.0,0.0,86,0.00,,,0.00,0,Wunderground v.1.15,2013-02-26 15:20:00,
2013-02-26 07:30:00,41.7,37.8,30.39,South,174,0.0,0.0,86,0.00,,,0.00,0,Wunderground v.1.15,2013-02-26 15:30:00,
2013-02-26 07:40:00,41.8,37.9,30.39,South,189,0.0,0.0,86,0.00,,,0.00,0,Wunderground v.1.15,2013-02-26 15:40:00,
2013-02-26 07:45:00,41.8,37.9,30.39,East,92,1.0,1.0,86,0.00,,,0.00,0,Wunderground v.1.15,2013-02-26 15:45:00,
2013-02-26 08:00:00,41.9,38.0,30.39,SSE,151,0.0,0.0,86,0.00,,,0.00,0,Wunderground v.1.15,2013-02-26 16:00:00,
2013-02-26 08:10:00,41.9,38.0,30.39,East,94,0.0,0.0,86,0.00,,,0.00,0,Wunderground v.1.15,2013-02-26 16:10:00,
2013-02-26 08:20:00,42.0,38.1,30.40,NE,43,1.0,1.0,86,0.00,,,0.00,0,Wunderground v.1.15,2013-02-26 16:20:00,
2013-02-26 08:25:00,42.1,37.9,30.40,WSW,245,0.0,1.0,85,0.00,,,0.00,0,Wunderground v.1.15,2013-02-26 16:25:00,
2013-02-26 08:40:00,42.3,38.1,30.40,ENE,75,0.0,0.0,85,0.00,,,0.00,0,Wunderground v.1.15,2013-02-26 16:40:00,
2013-02-26 08:50:00,42.4,38.5,30.40,East,90,0.0,0.0,86,0.00,,,0.00,0,Wunderground v.1.15,2013-02-26 16:50:00,
2013-02-26 09:00:00,42.6,38.4,30.39,NE,46,0.0,0.0,85,0.00,,,0.00,0,Wunderground v.1.15,2013-02-26 17:00:00,
2013-02-26 09:10:00,42.6,38.1,30.40,NE,38,0.0,0.0,84,0.00,,,0.00,0,Wunderground v.1.15,2013-02-26 17:10:00,
2013-02-26 09:20:00,42.7,38.2,30.40,South,178,1.0,1.0,84,0.00,,,0.00,0,Wunderground v.1.15,2013-02-26 17:20:00,
2013-02-26 09:30:00,42.6,37.8,30.39,ENE,62,0.0,0.0,83,0.00,,,0.00,0,Wunderground v.1.15,2013-02-26 17:30:00,
2013-02-26 09:40:00,42.6,37.8,30.39,NNE,26,0.0,0.0,83,0.00,,,0.00,0,Wunderground v.1.15,2013-02-26 17:40:00,
2013-02-26 09:50:00,42.8,38.0,30.39,NE,40,0.0,0.0,83,0.00,,,0.00,0,Wunderground v.1.15,2013-02-26 17:50:00,
2013-02-26 10:00:00,43.0,38.2,30.39,NE,36,0.0,0.0,83,0.00,,,0.00,0,Wunderground v.1.15,2013-02-26 18:00:00,
2013-02-26 10:10:00,43.3,37.9,30.39,East,86,1.0,1.0,81,0.00,,,0.00,0,Wunderground v.1.15,2013-02-26 18:10:00,
2013-02-26 10:20:00,43.3,37.2,30.39,ENE,71,2.0,2.0,79,0.00,,,0.00,0,Wunderground v.1.15,2013-02-26 18:20:00,
2013-02-26 10:25:00,43.3,37.5,30.39,SSE,165,0.0,2.0,80,0.00,,,0.00,0,Wunderground v.1.15,2013-02-26 18:25:00,
2013-02-26 10:40:00,43.4,37.6,30.38,SSW,212,0.0,0.0,80,0.00,,,0.00,0,Wunderground v.1.15,2013-02-26 18:40:00,
2013-02-26 10:50:00,43.3,37.2,30.38,NE,42,1.0,1.0,79,0.00,,,0.00,0,Wunderground v.1.15,2013-02-26 18:50:00,
2013-02-26 11:00:00,43.3,37.5,30.37,SE,134,0.0,0.0,80,0.00,,,0.00,0,Wunderground v.1.15,2013-02-26 19:00:00,
2013-02-26 11:10:00,43.3,37.5,30.37,NE,52,0.0,0.0,80,0.00,,,0.00,0,Wunderground v.1.15,2013-02-26 19:10:00,
2013-02-26 11:20:00,43.4,37.6,30.37,ENE,78,0.0,0.0,80,0.00,,,0.00,0,Wunderground v.1.15,2013-02-26 19:20:00,
2013-02-26 11:40:00,43.4,37.6,30.37,South,185,1.0,1.0,80,0.00,,,0.00,0,Wunderground v.1.15,2013-02-26 19:40:00,
2013-02-26 11:45:00,43.4,37.6,30.37,SSE,157,0.0,1.0,80,0.00,,,0.00,0,Wunderground v.1.15,2013-02-26 19:45:00,
2013-02-26 12:00:00,43.4,38.0,30.37,South,191,1.0,1.0,81,0.00,,,0.00,0,Wunderground v.1.15,2013-02-26 20:00:00,
2013-02-26 12:10:00,43.5,38.1,30.36,NE,50,2.0,2.0,81,0.00,,,0.00,0,Wunderground v.1.15,2013-02-26 20:10:00,
2013-02-26 12:20:00,43.5,38.1,30.35,South,178,1.0,1.0,81,0.00,,,0.00,0,Wunderground v.1.15,2013-02-26 20:20:00,
2013-02-26 12:25:00,43.6,38.2,30.36,NE,39,1.0,1.0,81,0.00,,,0.00,0,Wunderground v.1.15,2013-02-26 20:25:00,
2013-02-26 12:40:00,43.7,37.9,30.36,WSW,248,3.0,3.0,80,0.00,,,0.00,0,Wunderground v.1.15,2013-02-26 20:40:00,
2013-02-26 12:50:00,43.7,38.3,30.35,NE,40,0.0,0.0,81,0.00,,,0.00,0,Wunderground v.1.15,2013-02-26 20:50:00,
2013-02-26 13:00:00,43.7,37.9,30.35,NE,35,0.0,0.0,80,0.00,,,0.00,0,Wunderground v.1.15,2013-02-26 21:00:00,
2013-02-26 13:10:00,43.8,38.0,30.35,ESE,109,1.0,1.0,80,0.00,,,0.00,0,Wunderground v.1.15,2013-02-26 21:10:00,
2013-02-26 13:20:00,43.9,38.1,30.35,SSE,151,0.0,0.0,80,0.00,,,0.00,0,Wunderground v.1.15,2013-02-26 21:20:00,
2013-02-26 13:30:00,43.8,37.7,30.34,ENE,58,1.0,1.0,79,0.00,,,0.00,0,Wunderground v.1.15,2013-02-26 21:30:00,
2013-02-26 13:40:00,43.9,38.1,30.34,East,93,1.0,1.0,80,0.00,,,0.00,0,Wunderground v.1.15,2013-02-26 21:40:00,
2013-02-26 13:45:00,44.0,37.9,30.33,NE,39,1.0,1.0,79,0.00,,,0.00,0,Wunderground v.1.15,2013-02-26 21:45:00,
2013-02-26 13:55:00,44.1,37.7,30.33,East,94,1.0,1.0,78,0.00,,,0.00,0,Wunderground v.1.15,2013-02-26 21:55:00,
2013-02-26 14:10:00,44.3,37.5,30.33,ESE,110,0.0,0.0,77,0.00,,,0.00,0,Wunderground v.1.15,2013-02-26 22:10:00,
2013-02-26 14:20:00,44.3,37.2,30.32,ENE,71,0.0,0.0,76,0.00,,,0.00,0,Wunderground v.1.15,2013-02-26 22:20:00,
2013-02-26 14:25:00,44.4,37.0,30.32,SE,138,0.0,0.0,75,0.00,,,0.00,0,Wunderground v.1.15,2013-02-26 22:25:00,
2013-02-26 14:40:00,44.4,37.6,30.32,East,90,1.0,1.0,77,0.00,,,0.00,0,Wunderground v.1.15,2013-02-26 22:40:00,
2013-02-26 14:50:00,44.4,38.0,30.32,NNE,31,2.0,2.0,78,0.00,,,0.00,0,Wunderground v.1.15,2013-02-26 22:50:00,
2013-02-26 15:00:00,44.4,37.6,30.32,ENE,67,0.0,0.0,77,0.00,,,0.00,0,Wunderground v.1.15,2013-02-26 23:00:00,
2013-02-26 15:10:00,44.3,37.5,30.31,South,184,1.0,1.0,77,0.00,,,0.00,0,Wunderground v.1.15,2013-02-26 23:10:00,
2013-02-26 15:20:00,44.3,37.5,30.31,NE,38,0.0,0.0,77,0.00,,,0.00,0,Wunderground v.1.15,2013-02-26 23:20:00,
2013-02-26 15:30:00,44.2,37.8,30.30,NNE,30,0.0,0.0,78,0.00,,,0.00,0,Wunderground v.1.15,2013-02-26 23:30:00,
2013-02-26 15:40:00,44.1,37.3,30.30,SW,220,2.0,2.0,77,0.00,,,0.00,0,Wunderground v.1.15,2013-02-26 23:40:00,
2013-02-26 15:45:00,44.2,37.4,30.29,ESE,114,1.0,2.0,77,0.00,,,0.00,0,Wunderground v.1.15,2013-02-26 23:45:00,
2013-02-26 16:00:00,44.1,37.3,30.29,South,181,2.0,2.0,77,0.00,,,0.00,0,Wunderground v.1.15,2013-02-27 00:00:00,
2013-02-26 16:10:00,44.1,37.3,30.29,SSE,166,3.0,3.0,77,0.00,,,0.00,0,Wunderground v.1.15,2013-02-27 00:10:00,
2013-02-26 16:20:00,44.0,37.3,30.28,NE,49,1.0,1.0,77,0.00,,,0.00,0,Wunderground v.1.15,2013-02-27 00:20:00,
2013-02-26 16:30:00,44.0,37.6,30.28,ENE,68,1.0,1.0,78,0.00,,,0.00,0,Wunderground v.1.15,2013-02-27 00:30:00,
2013-02-26 16:40:00,44.0,37.3,30.28,ENE,57,0.0,0.0,77,0.00,,,0.00,0,Wunderground v.1.15,2013-02-27 00:40:00,
2013-02-26 16:50:00,44.0,37.3,30.28,East,84,0.0,0.0,77,0.00,,,0.00,0,Wunderground v.1.15,2013-02-27 00:50:00,
2013-02-26 17:00:00,44.0,37.3,30.27,West,260,0.0,0.0,77,0.00,,,0.00,0,Wunderground v.1.15,2013-02-27 01:00:00,
2013-02-26 17:10:00,44.0,36.6,30.27,ENE,59,0.0,0.0,75,0.00,,,0.00,0,Wunderground v.1.15,2013-02-27 01:10:00,
2013-02-26 17:20:00,44.0,36.6,30.27,NE,55,2.0,2.0,75,0.00,,,0.00,0,Wunderground v.1.15,2013-02-27 01:20:00,
2013-02-26 17:30:00,44.0,37.3,30.27,NE,34,3.0,3.0,77,0.00,,,0.00,0,Wunderground v.1.15,2013-02-27 01:30:00,
2013-02-26 17:40:00,44.0,36.9,30.27,NE,45,1.0,1.0,76,0.00,,,0.00,0,Wunderground v.1.15,2013-02-27 01:40:00,
2013-02-26 17:50:00,44.1,37.0,30.26,NE,42,0.0,0.0,76,0.00,,,0.00,0,Wunderground v.1.15,2013-02-27 01:50:00,
2013-02-26 18:00:00,44.1,37.3,30.26,NE,52,0.0,0.0,77,0.00,,,0.00,0,Wunderground v.1.15,2013-02-27 02:00:00,
2013-02-26 18:10:00,44.0,37.3,30.27,NE,44,0.0,0.0,77,0.00,,,0.00,0,Wunderground v.1.15,2013-02-27 02:10:00,
2013-02-26 18:20:00,44.0,37.6,30.26,NE,43,0.0,0.0,78,0.00,,,0.00,0,Wunderground v.1.15,2013-02-27 02:20:00,
2013-02-26 18:30:00,43.9,37.2,30.26,East,87,0.0,0.0,77,0.00,,,0.00,0,Wunderground v.1.15,2013-02-27 02:30:00,
2013-02-26 18:40:00,44.0,37.3,30.26,East,89,0.0,0.0,77,0.00,,,0.00,0,Wunderground v.1.15,2013-02-27 02:40:00,
2013-02-26 18:45:00,44.0,37.3,30.26,SSW,213,0.0,0.0,77,0.00,,,0.00,0,Wunderground v.1.15,2013-02-27 02:45:00,
2013-02-26 19:00:00,43.8,37.4,30.25,SSE,167,1.0,1.0,78,0.00,,,0.00,0,Wunderground v.1.15,2013-02-27 03:00:00,
2013-02-26 19:10:00,43.8,37.4,30.25,NE,43,2.0,2.0,78,0.00,,,0.00,0,Wunderground v.1.15,2013-02-27 03:10:00,
2013-02-26 19:20:00,43.8,37.4,30.25,NE,45,0.0,0.0,78,0.00,,,0.00,0,Wunderground v.1.15,2013-02-27 03:20:00,
2013-02-26 19:30:00,43.8,37.7,30.25,NE,41,0.0,0.0,79,0.00,,,0.00,0,Wunderground v.1.15,2013-02-27 03:30:00,
2013-02-26 19:40:00,43.6,38.5,30.24,NE,39,1.0,1.0,82,0.00,,,0.00,0,Wunderground v.1.15,2013-02-27 03:40:00,
2013-02-26 19:50:00,43.6,38.8,30.24,NE,41,0.0,0.0,83,0.00,,,0.00,0,Wunderground v.1.15,2013-02-27 03:50:00,
2013-02-26 20:00:00,43.4,38.9,30.23,NE,37,2.0,2.0,84,0.00,,,0.00,0,Wunderground v.1.15,2013-02-27 04:00:00,
2013-02-26 20:10:00,43.2,38.7,30.24,NE,44,2.0,2.0,84,0.00,,,0.00,0,Wunderground v.1.15,2013-02-27 04:10:00,
2013-02-26 20:20:00,43.1,38.6,30.24,NE,40,3.0,3.0,84,0.00,,,0.00,0,Wunderground v.1.15,2013-02-27 04:20:00,
2013-02-26 20:30:00,43.0,38.5,30.24,NE,37,2.0,2.0,84,0.00,,,0.00,0,Wunderground v.1.15,2013-02-27 04:30:00,
2013-02-26 20:40:00,42.9,38.4,30.25,NE,44,0.0,0.0,84,0.00,,,0.00,0,Wunderground v.1.15,2013-02-27 04:40:00,
2013-02-26 20:50:00,42.7,38.5,30.24,NE,40,0.0,0.0,85,0.00,,,0.00,0,Wunderground v.1.15,2013-02-27 04:50:00,
2013-02-26 21:00:00,42.7,38.8,30.23,NNE,30,1.0,1.0,86,0.00,,,0.00,0,Wunderground v.1.15,2013-02-27 05:00:00,
2013-02-26 21:10:00,42.6,38.7,30.23,ENE,78,2.0,2.0,86,0.00,,,0.00,0,Wunderground v.1.15,2013-02-27 05:10:00,
2013-02-26 21:20:00,42.7,38.8,30.23,NE,49,1.0,1.0,86,0.00,,,0.00,0,Wunderground v.1.15,2013-02-27 05:20:00,
2013-02-26 21:30:00,42.6,38.7,30.23,NE,38,0.0,0.0,86,0.00,,,0.00,0,Wunderground v.1.15,2013-02-27 05:30:00,
2013-02-26 21:40:00,42.7,38.5,30.23,NE,48,1.0,1.0,85,0.00,,,0.00,0,Wunderground v.1.15,2013-02-27 05:40:00,
2013-02-26 21:45:00,42.8,38.6,30.24,East,84,0.0,1.0,85,0.00,,,0.00,0,Wunderground v.1.15,2013-02-27 05:45:00,
2013-02-26 22:00:00,42.9,38.7,30.24,ESE,106,1.0,1.0,85,0.00,,,0.00,0,Wunderground v.1.15,2013-02-27 06:00:00,
2013-02-26 22:10:00,42.9,39.0,30.23,NE,34,9.0,9.0,86,0.00,,,0.00,0,Wunderground v.1.15,2013-02-27 06:10:00,
2013-02-26 22:20:00,42.8,39.5,30.23,South,190,0.0,0.0,88,0.00,,,0.00,0,Wunderground v.1.15,2013-02-27 06:20:00,
2013-02-26 22:30:00,42.8,39.5,30.24,ESE,116,0.0,0.0,88,0.00,,,0.00,0,Wunderground v.1.15,2013-02-27 06:30:00,
2013-02-26 22:40:00,42.9,39.9,30.25,WSW,242,1.0,1.0,89,0.00,,,0.00,0,Wunderground v.1.15,2013-02-27 06:40:00,
2013-02-26 22:50:00,42.9,39.6,30.25,SSE,153,0.0,0.0,88,0.00,,,0.00,0,Wunderground v.1.15,2013-02-27 06:50:00,
2013-02-26 23:00:00,42.8,39.8,30.25,ENE,77,0.0,0.0,89,0.00,,,0.00,0,Wunderground v.1.15,2013-02-27 07:00:00,
2013-02-26 23:10:00,42.8,39.8,30.25,South,178,0.0,0.0,89,0.00,,,0.00,0,Wunderground v.1.15,2013-02-27 07:10:00,
2013-02-26 23:15:00,42.8,40.1,30.25,East,83,2.0,2.0,90,0.00,,,0.00,0,Wunderground v.1.15,2013-02-27 07:15:00,
2013-02-26 23:30:00,42.7,40.0,30.24,South,182,0.0,0.0,90,0.00,,,0.00,0,Wunderground v.1.15,2013-02-27 07:30:00,
2013-02-26 23:40:00,42.7,40.0,30.24,SE,125,1.0,1.0,90,0.00,,,0.00,0,Wunderground v.1.15,2013-02-27 07:40:00,
2013-02-26 23:50:00,42.7,40.0,30.24,ESE,121,1.0,1.0,90,0.00,,,0.00,0,Wunderground v.1.15,2013-02-27 07:50:00,